Location: Kingston, Ontario, Canada
(44.2796°N, 76.5445°W)
Time: 14:39:37
(UTC-04:00)

ISS - Visible Passes

Search period start: 15 May 2021 00:00
Search period end: 25 May 2021 00:00
Orbit: 417 x 422 km, 51.6° (Epoch: 15 May)

Date Brightness Start Highest point End Pass type
(mag) Time Alt. Az. Time Alt. Az. Time Alt. Az.
15 May -1.3 00:40:50 10° WNW 00:43:38 24° N 00:46:27 10° NE visible
15 May -1.6 02:18:11 10° NW 02:21:09 28° NNE 02:24:08 10° ENE visible
15 May -3.9 03:54:52 10° WNW 03:58:16 83° SSW 04:01:38 10° SE visible
15 May -3.8 22:15:30 10° WSW 22:18:52 86° NNW 22:22:15 10° ENE visible
15 May -1.5 23:53:05 10° WNW 23:56:00 26° NNW 23:58:56 10° NE visible
16 May -1.4 01:30:41 10° NW 01:33:32 24° N 01:36:23 10° ENE visible
16 May -3.4 03:07:26 10° NW 03:10:47 65° NNE 03:14:09 10° ESE visible
16 May -2.4 04:44:49 10° W 04:47:19 19° SW 04:49:50 10° S visible
16 May -3.8 21:28:07 10° SW 21:31:26 59° SE 21:34:46 10° ENE visible
16 May -1.9 23:05:21 10° W 23:08:25 32° NNW 23:11:30 10° NE visible
17 May -1.3 00:43:08 10° NW 00:45:54 23° N 00:48:39 10° ENE visible
17 May -1.8 02:20:01 10° NW 02:26:37 10° E 02:21:38 24° NW visible
17 May -3.0 04:00:10 31° SW 04:00:10 31° SW 04:03:02 10° SSE visible
17 May -2.4 22:17:38 10° W 22:20:51 41° NNW 22:24:04 10° NE visible
17 May -1.2 23:55:30 10° NW 23:58:15 22° N 00:01:00 10° NE visible
18 May -1.6 01:32:36 10° NW 01:34:27 25° NNW 01:34:27 25° NNW visible
18 May -3.0 21:30:00 10° WSW 21:33:18 57° NNW 21:36:39 10° NE visible
18 May -1.3 23:07:48 10° WNW 23:10:36 24° N 23:13:24 10° NE visible
19 May -1.7 00:45:09 10° NW 00:48:07 28° NNE 00:48:07 28° NNE visible
19 May -1.5 22:20:03 10° WNW 22:22:58 26° NNW 22:25:53 10° NE visible
19 May -1.5 23:57:39 10° NW 00:00:29 24° N 00:01:57 18° NE visible
20 May -1.0 01:34:23 10° NW 01:34:53 14° NW 01:34:53 14° NW visible
20 May -1.8 21:32:17 10° W 21:35:21 31° NNW 21:38:25 10° NE visible
20 May -1.3 23:10:04 10° NW 23:12:51 23° N 23:15:36 10° ENE visible
21 May -1.7 00:46:57 10° NW 00:48:47 27° NNW 00:48:47 27° NNW visible
21 May -1.3 22:22:26 10° NW 22:25:10 22° N 22:27:56 10° NE visible
21 May -2.2 23:59:31 10° NW 00:02:38 34° NNE 00:02:45 34° NNE visible
22 May -1.4 21:34:42 10° WNW 21:37:30 24° N 21:40:19 10° NE visible
22 May -1.8 23:12:03 10° NW 23:15:01 28° NNE 23:16:44 18° ENE visible
23 May -1.3 00:48:44 10° WNW 00:49:40 17° WNW 00:49:40 17° WNW visible
23 May -1.6 22:24:32 10° NW 22:27:22 24° N 22:30:13 10° ENE visible
24 May -2.5 00:01:16 10° NW 00:03:40 41° NW 00:03:40 41° NW visible
24 May -1.5 21:36:57 10° NW 21:39:42 23° N 21:42:27 10° ENE visible
24 May -2.9 23:13:49 10° NW 23:17:05 45° NNE 23:17:43 39° ENE visible
